Location: Bun Machan
(52.1403°N, 7.3744°W)
Time: 01:35:31
(UTC+00:00)

Okean 3 - Pass Details

Date: 14 July 2020
Orbit: 576 x 601 km, 82.5° (Epoch: 11 August)

Event Time Altitude Azimuth Distance (km) Brightness Sun altitude
Rises 01:48:22 0° 353° (N) 2,807 8.2 -14.5°
Reaches altitude 10° 01:50:39 10° 0° (N) 1,904 7.3 -14.4°
Maximum altitude 01:54:41 44° 73° (ENE) 808 4.4 -14.2°
Drops below altitude 10° 01:58:42 10° 147° (SSE) 1,899 5.7 -14.0°
Enters shadow 01:58:50 - 148° (SSE) 1,951 5.8 -14.0°
